Regional Weather Roundup
Issued by NWS

Home | Current Version | Previous Version | Text Only | Print | Product List | Glossary On
Versions: 1 2 3 4 5 6 7 8 9 10 11 12 13 14 15 16 17 18 19 20 21 22 23 24 25 26 27 28 29 30 31 32 33 34 35 36 37 38 39 40 41 42 43 44 45 46 47 48 49 50
000
ASUS43 KTOP 231708
RWRKS

WEATHER ROUNDUP FOR KANSAS
NATIONAL WEATHER SERVICE GOODLAND KS
1200 PM CDT SAT MAY 23 2015

NOTE:  "FAIR" INDICATES FEW OR NO CLOUDS BELOW 12,000 FEET WITH NO
SIGNIFICANT WEATHER AND/OR OBSTRUCTIONS TO VISIBILITY.

KSZ001>006-013>018-027>032-041>047-231800-
NORTHWEST KANSAS

CITY           SKY/WX    TMP DP  RH WIND       PRES   REMARKS
GOODLAND       CLOUDY    55  53  93 S21G30    29.99F
HAYS           CLOUDY    55  48  76 S7        30.14R
HILL CITY      LGT RAIN  56  54  93 S9        30.11F
RUSSELL        LGT RAIN  57  56  96 S12       30.12S
$$

KSZ061>065-074>080-084>089-231800-
SOUTHWEST KANSAS

CITY           SKY/WX    TMP DP  RH WIND       PRES   REMARKS
DODGE CITY     LGT RAIN  55  53  93 E17       30.04F
ELKHART          N/A     63  54  73 SE14        N/A
GARDEN CITY    CLOUDY    55  53  93 E12       29.97F
GREAT BEND     CLOUDY    55  52  88 NW6       30.14F
LIBERAL        CLOUDY    57  54  88 E14G21    29.99R
PRATT          TSTM      54  54 100 NW8       30.15R
$$

KSZ066>073-081>083-090>101-231800-
SOUTHEAST KANSAS

CITY           SKY/WX    TMP DP  RH WIND       PRES   REMARKS
CHANUTE        CLOUDY    61  59  93 SE8       30.18F
COFFEYVILLE    CLOUDY    64  60  87 E9        30.16F
HUTCHINSON     CLOUDY    59  56  89 SE13      30.11F THUNDER FOG
MEDICINE LODGE   N/A     56  56 100 N7        30.10R
NEWTON         CLOUDY    57  54  88 SE12      30.13F
PARSONS        LGT RAIN  62  61  96 SE5       30.18F
WICHITA INTL   CLOUDY    59  57  93 SE15      30.10F FOG
WICHITA JABRA  LGT RAIN  58  57  97 SE12G18   30.11F FOG
WICHITA MCCONL LGT RAIN  58  58  97 E12       30.11F FOG
WINFIELD       CLOUDY    60  60 100 SE10      30.12F FOG
$$

KSZ007>012-019>026-033>040-048>060-102>105-231800-
NORTHEAST KANSAS

CITY           SKY/WX    TMP DP  RH WIND       PRES   REMARKS
CONCORDIA      CLOUDY    60  56  86 SE13      30.13S
EMPORIA        CLOUDY    61  58  90 SE16      30.16F
LAWRENCE       CLOUDY    65  58  78 SE13      30.19S
MANHATTAN      CLOUDY    63  58  83 SE12G20   30.14F
MARYSVILLE     CLOUDY    61  55  82 SE9       30.15F
OLATHE IND     CLOUDY    63  58  83 SE14      30.21F
OLATHE EXE     CLOUDY    62  58  86 SE14      30.20F
SALINA         CLOUDY    63  58  83 SE14      30.11F
TOPEKA BILLARD CLOUDY    64  58  80 SE12      30.18F
TOPEKA FORBES  CLOUDY    65  58  78 S13       30.17F
$$



USA.gov is the U.S. government's official web portal to all federal, state and local government web resources and services.